Weather in Maryevka

Russia / Orenburg Oblast     52°14′42″N   55°16′44″E
В апреле 2022 года жителям России запретили посещать сайт meteo.paraplan.net по решению Генеральной прокуратуры. Аудитория сайта уменьшилась в 10 раз. Владельцы сайта не видят смысла в поддержке погодного сервера в таких условиях. Сайт будет закрыт в октябре.
temp.,
°C
wind,
m/s
gust,
m/s
humid.,
%
clouds,
%
prec.,
mm/h
press.,
hPa
HPBL,
m
25 september, sun
sun2523:00+18nw3453100 0.0 101061
02:00+16nnw3464100 0.0 101080
05:00+16nnw3560100 0.0 1009140
08:00+14ene1380100 2.1 1007132
11:00+13wnw6890100 4.1 1005371
14:00+11nw6989100 4.6 1005499
17:00+11w51081100 4.8 1007709
20:00+11w59827 0.0 1008635
26 september, mon
mon2623:00+10sw2484100 0.4 1009211
02:00+10ssw479038 0.4 1009286
05:00+9sw4992100 0.6 1010439
08:00+8wsw5108913 0.1 1011425
11:00+11wsw686435 0.1 10121099
14:00+12wsw7865100 0.4 10131324
17:00+12wsw676185 0.8 10131236
20:00+10wsw5979100 0.1 1015595
27 september, tue
tue2723:00+10w5881100 0.4 1015564
02:00+9wsw4882100 0.1 1016437
05:00+9wsw4784100 0.2 1016403
08:00+9wsw3783100 0.3 1016382
11:00+11w576476 0.5 1017854
14:00+13w6946100 0.1 10172099
17:00+13w4648100 0.1 1017683
20:00+12ssw1153100 0.0 101810
28 september, wed
wed2823:00+10ssw3358100 0.0 101739
02:00+11wsw3667100 0.1 1017188
05:00+9w1287100 1.9 1018154
08:00+9ese1189100 1.4 1017189
11:00+9e2388100 1.6 1017314
14:00+10e2286100 0.2 1017321
17:00+10ene3387100 0.3 1017280
20:00+9e2489100 0.0 1017220
29 september, thu
thu2923:00+9e3591100 0.6 1016260
02:00+9ene4795100 2.2 1016327
05:00+9ene3696100 5.1 1015286
08:00+9e4893100 0.8 1014361
11:00+10e5987100 1.3 1014419
14:00+11e6880100 0.4 1014586
17:00+10e6985100 0.6 1014485
20:00+8e81386100 0.3 1015535